Location: *
(45.8589°N, 4.7139°E)
Time: 21:27:45
(UTC+00:00)

Cosmos 1766 Rocket - Pass Details

Date: 09 April 2020
Orbit: 604 x 634 km, 82.5° (Epoch: 05 June)

Event Time Altitude Azimuth Distance (km) Brightness Sun altitude
Rises 20:47:03 0° 356° (N) 2,939 7.7 -23.4°
Reaches altitude 10° 20:49:23 10° 2° (N) 2,023 6.7 -23.7°
Enters shadow 20:52:56 42° 45° (NE) 908 4.3 -24.2°
